When you browse on this site, cookies collect data to enhance your experience and personalize the content and advertising you see.
Visit our Privacy Policy to learn more. By continuing to use the site, you agree to this use of cookies and data.

Hourly Weather Igls

Today, 11 August, Tuesday

Time Temperature Precipitation Wind Pressure Humidity
00:00 +19°C° 0.1 mm 1 mps 686 mmHg 88%
01:00 +19°C° 0.1 mm 1 mps 686 mmHg 87%
02:00 +18°C° 0.1 mm 1 mps 686 mmHg 87%
03:00 +18°C° 0.1 mm 1 mps 686 mmHg 87%
04:00 +18°C° 0.1 mm 1 mps 686 mmHg 87%
05:00 +19°C° 0.1 mm 1 mps 686 mmHg 85%
06:00 +21°C° 0.1 mm 1 mps 687 mmHg 82%
07:00 +20°C° 0.1 mm 0 mps 687 mmHg 79%
08:00 +24°C° 0.3 mm 1 mps 687 mmHg 70%
09:00 +26°C° 0.3 mm 1 mps 688 mmHg 61%
10:00 +28°C° 0.3 mm 1 mps 688 mmHg 52%
11:00 +29°C° 0.7 mm 1 mps 688 mmHg 51%
12:00 +29°C° 0.7 mm 1 mps 688 mmHg 50%
13:00 +30°C° 0.7 mm 1 mps 688 mmHg 49%
14:00 +28°C° 1.6 mm 1 mps 688 mmHg 58%
15:00 +27°C° 1.6 mm 1 mps 687 mmHg 67%
16:00 +25°C° 1.6 mm 1 mps 687 mmHg 76%
17:00 +24°C° 1.8 mm 1 mps 687 mmHg 81%
18:00 +23°C° 1.8 mm 1 mps 687 mmHg 85%
19:00 +21°C° 1.8 mm 1 mps 687 mmHg 90%
20:00 +21°C° 0.3 mm 1 mps 687 mmHg 90%
21:00 +20°C° 0.3 mm 1 mps 687 mmHg 89%
22:00 +19°C° 0.3 mm 1 mps 687 mmHg 89%
23:00 +19°C° 0 mm 1 mps 687 mmHg 88%

Tomorrow, 12 August, Wednesday

Time Temperature Precipitation Wind Pressure Humidity
00:00 +18°C° 0 mm 1 mps 686 mmHg 87%
01:00 +18°C° 0 mm 1 mps 686 mmHg 86%
02:00 +18°C° 0 mm 1 mps 686 mmHg 85%
03:00 +18°C° 0 mm 1 mps 686 mmHg 84%
04:00 +18°C° 0 mm 1 mps 686 mmHg 84%
05:00 +19°C° 0 mm 1 mps 687 mmHg 81%
06:00 +21°C° 0 mm 1 mps 687 mmHg 78%
07:00 +22°C° 0 mm 1 mps 687 mmHg 75%
08:00 +25°C° 0 mm 1 mps 688 mmHg 66%
09:00 +27°C° 0 mm 1 mps 688 mmHg 57%
10:00 +27°C° 0 mm 0 mps 688 mmHg 48%
11:00 +30°C° 0.1 mm 1 mps 688 mmHg 45%
12:00 +31°C° 0.1 mm 1 mps 688 mmHg 43%
13:00 +31°C° 0.1 mm 1 mps 688 mmHg 40%
14:00 +31°C° 0.3 mm 1 mps 688 mmHg 44%
15:00 +30°C° 0.3 mm 1 mps 688 mmHg 48%
16:00 +29°C° 0.3 mm 1 mps 687 mmHg 53%
17:00 +27°C° 1.1 mm 1 mps 687 mmHg 63%
18:00 +25°C° 1.1 mm 1 mps 687 mmHg 73%
19:00 +21°C° 1.1 mm 0 mps 687 mmHg 83%
20:00 +22°C° 0.5 mm 1 mps 687 mmHg 84%
21:00 +21°C° 0.5 mm 1 mps 687 mmHg 85%
22:00 +20°C° 0.5 mm 1 mps 687 mmHg 86%
23:00 +20°C° 0 mm 1 mps 687 mmHg 86%

Day after tomorrow, 13 August, Thursday

Time Temperature Precipitation Wind Pressure Humidity
00:00 +20°C° 0 mm 1 mps 686 mmHg 85%
01:00 +19°C° 0 mm 1 mps 686 mmHg 85%
02:00 +19°C° 0 mm 1 mps 686 mmHg 85%
03:00 +19°C° 0 mm 1 mps 686 mmHg 85%
04:00 +19°C° 0 mm 1 mps 686 mmHg 85%
05:00 +20°C° 0 mm 1 mps 686 mmHg 82%
06:00 +21°C° 0 mm 1 mps 686 mmHg 80%
07:00 +23°C° 0 mm 1 mps 687 mmHg 77%
08:00 +25°C° 0.4 mm 1 mps 687 mmHg 69%
09:00 +27°C° 0.4 mm 1 mps 687 mmHg 62%
10:00 +28°C° 0.4 mm 1 mps 688 mmHg 54%
11:00 +28°C° 1.1 mm 1 mps 687 mmHg 58%
12:00 +27°C° 1.1 mm 1 mps 687 mmHg 63%
13:00 +27°C° 1.1 mm 1 mps 687 mmHg 68%
14:00 +25°C° 1.6 mm 1 mps 686 mmHg 75%
15:00 +24°C° 1.6 mm 1 mps 686 mmHg 82%
16:00 +22°C° 1.6 mm 1 mps 686 mmHg 89%
17:00 +22°C° 0.8 mm 1 mps 686 mmHg 91%
18:00 +21°C° 0.8 mm 1 mps 686 mmHg 93%
19:00 +20°C° 0.8 mm 1 mps 686 mmHg 95%
20:00 +20°C° 0.1 mm 1 mps 686 mmHg 94%
21:00 +19°C° 0.1 mm 1 mps 686 mmHg 93%
22:00 +19°C° 0.1 mm 1 mps 686 mmHg 92%
23:00 +17°C° 0 mm 0 mps 686 mmHg 92%

14 August, Friday

Time Temperature Precipitation Wind Pressure Humidity
00:00 +17°C° 0 mm 0 mps 685 mmHg 91%
01:00 +16°C° 0 mm 0 mps 685 mmHg 90%
02:00 +16°C° 0.1 mm 0 mps 685 mmHg 90%
03:00 +16°C° 0.1 mm 0 mps 685 mmHg 90%
04:00 +16°C° 0.1 mm 0 mps 685 mmHg 90%
05:00 +17°C° 0.2 mm 0 mps 685 mmHg 90%
06:00 +17°C° 0.2 mm 0 mps 685 mmHg 89%
07:00 +18°C° 0.2 mm 0 mps 685 mmHg 88%
08:00 +20°C° 0.7 mm 1 mps 685 mmHg 90%
09:00 +20°C° 0.7 mm 1 mps 685 mmHg 91%
10:00 +20°C° 0.7 mm 1 mps 685 mmHg 93%
11:00 +22°C° 0.7 mm 1 mps 685 mmHg 87%
12:00 +23°C° 0.7 mm 1 mps 685 mmHg 82%
13:00 +24°C° 0.7 mm 1 mps 685 mmHg 77%
14:00 +24°C° 1 mm 1 mps 685 mmHg 78%
15:00 +23°C° 1 mm 1 mps 685 mmHg 79%
16:00 +23°C° 1 mm 1 mps 685 mmHg 80%
17:00 +22°C° 0.7 mm 1 mps 685 mmHg 83%
18:00 +21°C° 0.7 mm 1 mps 685 mmHg 87%
19:00 +18°C° 0.7 mm 0 mps 685 mmHg 90%
20:00 +17°C° 0 mm 0 mps 685 mmHg 91%
21:00 +18°C° 0 mm 1 mps 685 mmHg 91%
22:00 +16°C° 0 mm 1 mps 685 mmHg 92%
23:00 +15°C° 0 mm 1 mps 685 mmHg 92%

15 August, Saturday

Time Temperature Precipitation Wind Pressure Humidity
00:00 +15°C° 0 mm 1 mps 685 mmHg 93%
01:00 +15°C° 0 mm 1 mps 685 mmHg 93%
02:00 +14°C° 0 mm 1 mps 685 mmHg 93%
03:00 +14°C° 0 mm 1 mps 684 mmHg 93%
04:00 +14°C° 0 mm 1 mps 684 mmHg 93%
05:00 +15°C° 0 mm 1 mps 685 mmHg 91%
06:00 +16°C° 0 mm 1 mps 685 mmHg 90%
07:00 +18°C° 0 mm 1 mps 685 mmHg 88%
08:00 +21°C° 0 mm 1 mps 686 mmHg 77%
09:00 +23°C° 0 mm 1 mps 686 mmHg 66%
10:00 +25°C° 0 mm 1 mps 687 mmHg 56%
11:00 +26°C° 0 mm 1 mps 686 mmHg 51%
12:00 +27°C° 0 mm 2 mps 686 mmHg 47%
13:00 +28°C° 0 mm 2 mps 686 mmHg 42%
14:00 +27°C° 0 mm 2 mps 686 mmHg 44%
15:00 +27°C° 0 mm 2 mps 686 mmHg 46%
16:00 +26°C° 0 mm 2 mps 686 mmHg 47%
17:00 +24°C° 0 mm 2 mps 686 mmHg 59%
18:00 +22°C° 0 mm 1 mps 685 mmHg 71%
19:00 +20°C° 0 mm 1 mps 685 mmHg 82%
20:00 +19°C° 0 mm 1 mps 685 mmHg 86%
21:00 +18°C° 0 mm 1 mps 685 mmHg 90%
22:00 +16°C° 0 mm 1 mps 685 mmHg 93%
23:00 +15°C° 0 mm 1 mps 685 mmHg 93%

16 August, Sunday

Time Temperature Precipitation Wind Pressure Humidity
00:00 +15°C° 0 mm 1 mps 685 mmHg 94%
01:00 +15°C° 0 mm 1 mps 685 mmHg 94%
02:00 +14°C° 0 mm 1 mps 685 mmHg 93%
03:00 +14°C° 0 mm 1 mps 684 mmHg 93%
04:00 +14°C° 0 mm 1 mps 684 mmHg 92%
05:00 +16°C° 0 mm 1 mps 684 mmHg 86%
06:00 +18°C° 0 mm 1 mps 685 mmHg 81%
07:00 +18°C° 0 mm 0 mps 685 mmHg 75%
08:00 +22°C° 0 mm 1 mps 685 mmHg 66%
09:00 +25°C° 0 mm 1 mps 686 mmHg 57%
10:00 +27°C° 0 mm 1 mps 686 mmHg 48%
11:00 +28°C° 0 mm 1 mps 686 mmHg 45%
12:00 +29°C° 0 mm 1 mps 685 mmHg 42%
13:00 +29°C° 0 mm 2 mps 685 mmHg 40%
14:00 +29°C° 0 mm 2 mps 685 mmHg 43%
15:00 +28°C° 0 mm 2 mps 685 mmHg 45%
16:00 +28°C° 0 mm 2 mps 684 mmHg 48%
17:00 +26°C° 0.3 mm 1 mps 684 mmHg 60%
18:00 +23°C° 0.3 mm 1 mps 683 mmHg 72%
19:00 +21°C° 0.3 mm 1 mps 683 mmHg 84%
20:00 +21°C° 0.4 mm 1 mps 683 mmHg 85%
21:00 +20°C° 0.4 mm 1 mps 683 mmHg 86%
22:00 +19°C° 0.4 mm 1 mps 683 mmHg 87%
23:00 +18°C° 0.4 mm 2 mps 683 mmHg 88%
Show more